Aérodrome :
LOGIN :

S'inscrire | Disclaimer

   EN    FR    IT 

 










Légende :    VFR   VFR Marginal   IFR   IFR Intensif   IFR Très Intensif
Visi : 
Plafond : 
>= 8 km
>= 3000ft
5 à 8 km
1000 à 3000 ft
1500m à 5 km
500 à 1000 ft
800 à 1500m
200 à 500 ft
< 800m
< 200 ft
Symboles :   Orages  Brouillard  Fortes neiges  Fortes précipitations  Vent > 20 kt
SIGMETs :   Divers  Orages  Givrage  Turbulence  Onde Orograph.  Cendres Volcan.







- Altitude de l'aérodrome : 13 ft
- Code IATA : CEQ
- Voir les cartes d'approche


LFMD - Cannes Mandelieu

DERNIER METAR :
  • 132000Z AUTO 02004KT 350V050 7000 NSC 14/13 Q1027 NOSIG

METARs EXPIRÉS :
  • 131930Z AUTO 01003KT 340V050 6000 NSC 14/13 Q1027 NOSIG
  • 131900Z AUTO VRB03KT 9000 NSC 14/13 Q1027 NOSIG
  • 131830Z AUTO VRB03KT CAVOK 15/14 Q1027 NOSIG
  • 131800Z AUTO VRB02KT CAVOK 15/14 Q1027 NOSIG
  • 131730Z AUTO 02003KT 350V050 CAVOK 16/14 Q1027 NOSIG

TAF TAF LFMD
Valide du 13 à 15h jusqu'au 14 à 15h UTC


131400Z 1315/1415 VRB02KT CAVOK
PROB40
TEMPO 1400/1409 BKN014
ATIS : +33 4 93 48 73 23
Pas de NOTAMs connus pour ce terrain.



MET'MAP, la Météo Aéronautique d'un coup d'oeil ! - Copyright ORBIFLY Décembre 2007 - Disclaimer

ORBIFLY MET'MAP TEAM :

Programmation & Développement : Alexandra Zaïnal
Conception & Développement : Baudouin d'Aumeries
Co-Programmation & Développement : Marc-Olivier Méhu
Soutien technique & logistique : Manuel Goepfert

Contact : metmap@orbifly.com




SOURCES & CREDITS :

   NOAA